Time,TemperatureF,DewpointF,PressureIn,WindDirection,WindDirectionDegrees,WindSpeedMPH,WindSpeedGustMPH,Humidity,HourlyPrecipIn,Conditions,Clouds,dailyrainin,SolarRadiationWatts/m^2,SoftwareType,DateUTC
2013-06-14 00:00:00,63.0,29.0,-100.00,SW,229,2.0,19.0,28,0.00,,,0.00,0.000000,,2013-06-14 07:00:00,
2013-06-14 00:33:00,63.0,29.0,-100.00,SW,229,2.0,19.0,28,0.00,,,0.00,0.000000,,2013-06-14 07:33:00,
2013-06-14 00:43:00,63.0,29.0,-100.00,SW,229,2.0,19.0,28,0.00,,,0.00,0.000000,,2013-06-14 07:43:00,
2013-06-14 00:53:00,63.0,29.0,-100.00,SW,229,2.0,19.0,28,0.00,,,0.00,0.000000,,2013-06-14 07:53:00,
2013-06-14 01:23:00,59.0,28.0,-100.00,SSE,151,0.0,7.0,30,0.00,,,0.00,0.000000,,2013-06-14 08:23:00,
2013-06-14 01:33:00,59.0,28.0,-100.00,SSE,151,0.0,7.0,30,0.00,,,0.00,0.000000,,2013-06-14 08:33:00,
2013-06-14 01:43:00,59.0,28.0,-100.00,SSE,151,0.0,7.0,30,0.00,,,0.00,0.000000,,2013-06-14 08:43:00,
2013-06-14 01:53:00,59.0,28.0,-100.00,SSE,151,0.0,7.0,30,0.00,,,0.00,0.000000,,2013-06-14 08:53:00,
2013-06-14 02:00:00,60.0,28.0,-100.00,NNW,331,0.0,5.0,30,0.00,,,0.00,0.000000,,2013-06-14 09:00:00,
2013-06-14 02:33:00,60.0,28.0,-100.00,NNW,331,0.0,5.0,30,0.00,,,0.00,0.000000,,2013-06-14 09:33:00,
2013-06-14 02:43:00,60.0,28.0,-100.00,NNW,331,0.0,5.0,30,0.00,,,0.00,0.000000,,2013-06-14 09:43:00,
2013-06-14 02:53:00,60.0,28.0,-100.00,NNW,331,0.0,5.0,30,0.00,,,0.00,0.000000,,2013-06-14 09:53:00,
2013-06-14 03:00:00,58.0,28.0,-100.00,NW,322,0.0,4.0,32,0.00,,,0.00,0.000000,,2013-06-14 10:00:00,
2013-06-14 03:22:00,58.0,28.0,-100.00,NW,322,0.0,4.0,32,0.00,,,0.00,0.000000,,2013-06-14 10:22:00,
2013-06-14 03:34:00,58.0,28.0,-100.00,NW,322,0.0,4.0,32,0.00,,,0.00,0.000000,,2013-06-14 10:34:00,
2013-06-14 03:44:00,58.0,28.0,-100.00,NW,322,0.0,4.0,32,0.00,,,0.00,0.000000,,2013-06-14 10:44:00,
2013-06-14 03:52:00,58.0,28.0,-100.00,NW,322,0.0,4.0,32,0.00,,,0.00,0.000000,,2013-06-14 10:52:00,
2013-06-14 04:33:00,57.0,27.0,-100.00,NW,304,5.0,9.0,31,0.00,,,0.00,0.000000,,2013-06-14 11:33:00,
2013-06-14 04:43:00,57.0,27.0,-100.00,NW,304,5.0,9.0,31,0.00,,,0.00,0.000000,,2013-06-14 11:43:00,
2013-06-14 04:52:00,57.0,27.0,-100.00,NW,304,5.0,9.0,31,0.00,,,0.00,0.000000,,2013-06-14 11:52:00,
2013-06-14 05:33:00,54.0,27.0,-100.00,WNW,295,7.0,11.0,35,0.00,,,0.00,0.000000,,2013-06-14 12:33:00,
2013-06-14 05:43:00,54.0,27.0,-100.00,WNW,295,7.0,11.0,35,0.00,,,0.00,0.000000,,2013-06-14 12:43:00,
2013-06-14 05:52:00,54.0,27.0,-100.00,WNW,295,7.0,11.0,35,0.00,,,0.00,0.000000,,2013-06-14 12:52:00,
2013-06-14 06:22:00,53.0,27.0,-100.00,WNW,295,8.0,12.0,36,0.00,,,0.00,0.000000,,2013-06-14 13:22:00,
2013-06-14 06:33:00,53.0,27.0,-100.00,WNW,295,8.0,12.0,36,0.00,,,0.00,0.000000,,2013-06-14 13:33:00,
2013-06-14 06:43:00,53.0,27.0,-100.00,WNW,295,8.0,12.0,36,0.00,,,0.00,0.000000,,2013-06-14 13:43:00,
2013-06-14 06:53:00,53.0,27.0,-100.00,WNW,295,8.0,12.0,36,0.00,,,0.00,0.000000,,2013-06-14 13:53:00,
2013-06-14 07:22:00,54.0,28.0,-100.00,WNW,296,8.0,12.0,36,-99.99,,,0.00,4.000000,,2013-06-14 14:22:00,
2013-06-14 07:34:00,54.0,28.0,-100.00,WNW,296,8.0,12.0,36,-99.99,,,0.00,4.000000,,2013-06-14 14:34:00,
2013-06-14 07:43:00,54.0,28.0,-100.00,WNW,296,8.0,12.0,36,-99.99,,,0.00,4.000000,,2013-06-14 14:43:00,
2013-06-14 07:52:00,54.0,28.0,-100.00,WNW,296,8.0,12.0,36,-99.99,,,0.00,4.000000,,2013-06-14 14:52:00,
2013-06-14 08:00:00,62.0,29.0,-100.00,ESE,104,0.0,12.0,28,-99.99,,,0.00,127.000000,,2013-06-14 15:00:00,
2013-06-14 08:23:00,62.0,29.0,-100.00,ESE,104,0.0,12.0,28,-99.99,,,0.00,127.000000,,2013-06-14 15:23:00,
2013-06-14 08:33:00,62.0,29.0,-100.00,ESE,104,0.0,12.0,28,-99.99,,,0.00,127.000000,,2013-06-14 15:33:00,
2013-06-14 08:44:00,62.0,29.0,-100.00,ESE,104,0.0,12.0,28,-99.99,,,0.00,127.000000,,2013-06-14 15:44:00,
2013-06-14 08:53:00,62.0,29.0,-100.00,ESE,104,0.0,12.0,28,-99.99,,,0.00,127.000000,,2013-06-14 15:53:00,
2013-06-14 09:23:00,67.0,29.0,-100.00,East,92,3.0,4.0,24,0.00,,,0.00,421.000000,,2013-06-14 16:23:00,
2013-06-14 09:33:00,67.0,29.0,-100.00,East,92,3.0,4.0,24,0.00,,,0.00,421.000000,,2013-06-14 16:33:00,
2013-06-14 09:43:00,67.0,29.0,-100.00,East,92,3.0,4.0,24,0.00,,,0.00,421.000000,,2013-06-14 16:43:00,
2013-06-14 09:53:00,67.0,29.0,-100.00,East,92,3.0,4.0,24,0.00,,,0.00,421.000000,,2013-06-14 16:53:00,
2013-06-14 10:23:00,70.0,29.0,-100.00,East,99,5.0,8.0,22,-99.99,,,0.00,699.000000,,2013-06-14 17:23:00,
2013-06-14 10:34:00,70.0,29.0,-100.00,East,99,5.0,8.0,22,-99.99,,,0.00,699.000000,,2013-06-14 17:34:00,
2013-06-14 10:43:00,70.0,29.0,-100.00,East,99,5.0,8.0,22,-99.99,,,0.00,699.000000,,2013-06-14 17:43:00,
2013-06-14 10:53:00,70.0,29.0,-100.00,East,99,5.0,8.0,22,-99.99,,,0.00,699.000000,,2013-06-14 17:53:00,
2013-06-14 11:00:00,75.0,30.0,-100.00,SE,135,5.0,9.0,19,0.00,,,0.00,956.000000,,2013-06-14 18:00:00,
2013-06-14 11:22:00,75.0,30.0,-100.00,SE,135,5.0,9.0,19,0.00,,,0.00,956.000000,,2013-06-14 18:22:00,
2013-06-14 11:33:00,75.0,30.0,-100.00,SE,135,5.0,9.0,19,0.00,,,0.00,956.000000,,2013-06-14 18:33:00,
2013-06-14 11:43:00,75.0,30.0,-100.00,SE,135,5.0,9.0,19,0.00,,,0.00,956.000000,,2013-06-14 18:43:00,
2013-06-14 11:52:00,75.0,30.0,-100.00,SE,135,5.0,9.0,19,0.00,,,0.00,956.000000,,2013-06-14 18:52:00,
2013-06-14 12:00:00,81.0,31.0,-100.00,ESE,104,6.0,10.0,16,0.00,,,0.00,1174.000000,,2013-06-14 19:00:00,
2013-06-14 12:33:00,81.0,31.0,-100.00,ESE,104,6.0,10.0,16,0.00,,,0.00,1174.000000,,2013-06-14 19:33:00,
2013-06-14 12:43:00,81.0,31.0,-100.00,ESE,104,6.0,10.0,16,0.00,,,0.00,1174.000000,,2013-06-14 19:43:00,
2013-06-14 12:53:00,81.0,31.0,-100.00,ESE,104,6.0,10.0,16,0.00,,,0.00,1174.000000,,2013-06-14 19:53:00,
2013-06-14 13:22:00,84.0,16.0,-100.00,NE,56,2.0,10.0,8,0.00,,,0.00,1323.000000,,2013-06-14 20:22:00,
2013-06-14 13:43:00,84.0,16.0,-100.00,NE,56,2.0,10.0,8,0.00,,,0.00,1323.000000,,2013-06-14 20:43:00,
2013-06-14 13:53:00,84.0,16.0,-100.00,NE,56,2.0,10.0,8,0.00,,,0.00,1323.000000,,2013-06-14 20:53:00,
2013-06-14 14:00:00,89.0,20.0,-100.00,East,98,6.0,12.0,8,0.00,,,0.00,1391.000000,,2013-06-14 21:00:00,
2013-06-14 14:43:00,89.0,20.0,-100.00,East,98,6.0,12.0,8,0.00,,,0.00,1391.000000,,2013-06-14 21:43:00,
2013-06-14 14:52:00,89.0,20.0,-100.00,East,98,6.0,12.0,8,0.00,,,0.00,1391.000000,,2013-06-14 21:52:00,
2013-06-14 15:00:00,88.0,29.0,-100.00,ESE,107,9.0,16.0,12,0.00,,,0.00,1377.000000,,2013-06-14 22:00:00,
2013-06-14 15:22:00,88.0,29.0,-100.00,ESE,107,9.0,16.0,12,0.00,,,0.00,1377.000000,,2013-06-14 22:22:00,
2013-06-14 15:33:00,88.0,29.0,-100.00,ESE,107,9.0,16.0,12,0.00,,,0.00,1377.000000,,2013-06-14 22:33:00,
2013-06-14 15:43:00,88.0,29.0,-100.00,ESE,107,9.0,16.0,12,0.00,,,0.00,1377.000000,,2013-06-14 22:43:00,
2013-06-14 15:53:00,88.0,29.0,-100.00,ESE,107,9.0,16.0,12,0.00,,,0.00,1377.000000,,2013-06-14 22:53:00,
2013-06-14 17:00:00,86.0,31.0,-100.00,WNW,291,11.0,21.0,14,0.00,,,0.00,1141.000000,,2013-06-15 00:00:00,
2013-06-14 17:23:00,86.0,31.0,-100.00,WNW,291,11.0,21.0,14,0.00,,,0.00,1141.000000,,2013-06-15 00:23:00,
2013-06-14 17:34:00,86.0,31.0,-100.00,WNW,291,11.0,21.0,14,0.00,,,0.00,1141.000000,,2013-06-15 00:34:00,
2013-06-14 17:43:00,86.0,31.0,-100.00,WNW,291,11.0,21.0,14,0.00,,,0.00,1141.000000,,2013-06-15 00:43:00,
2013-06-14 17:53:00,86.0,31.0,-100.00,WNW,291,11.0,21.0,14,0.00,,,0.00,1141.000000,,2013-06-15 00:53:00,
2013-06-14 18:00:00,85.0,35.0,-100.00,WNW,297,12.0,20.0,17,0.00,,,0.00,924.000000,,2013-06-15 01:00:00,
2013-06-14 18:22:00,85.0,35.0,-100.00,WNW,297,12.0,20.0,17,0.00,,,0.00,924.000000,,2013-06-15 01:22:00,
2013-06-14 18:33:00,85.0,35.0,-100.00,WNW,297,12.0,20.0,17,0.00,,,0.00,924.000000,,2013-06-15 01:33:00,
2013-06-14 18:43:00,85.0,35.0,-100.00,WNW,297,12.0,20.0,17,0.00,,,0.00,924.000000,,2013-06-15 01:43:00,
2013-06-14 18:54:00,85.0,35.0,-100.00,WNW,297,12.0,20.0,17,0.00,,,0.00,924.000000,,2013-06-15 01:54:00,
2013-06-14 19:00:00,83.0,32.0,-100.00,West,281,9.0,22.0,16,0.00,,,0.00,337.000000,,2013-06-15 02:00:00,
2013-06-14 19:34:00,83.0,32.0,-100.00,West,281,9.0,22.0,16,0.00,,,0.00,337.000000,,2013-06-15 02:34:00,
2013-06-14 19:43:00,83.0,32.0,-100.00,West,281,9.0,22.0,16,0.00,,,0.00,337.000000,,2013-06-15 02:43:00,
2013-06-14 19:53:00,83.0,32.0,-100.00,West,281,9.0,22.0,16,0.00,,,0.00,337.000000,,2013-06-15 02:53:00,
2013-06-14 20:00:00,75.0,32.0,-100.00,West,271,12.0,23.0,21,0.00,,,0.00,124.000000,,2013-06-15 03:00:00,
2013-06-14 20:24:00,75.0,32.0,-100.00,West,271,12.0,23.0,21,0.00,,,0.00,124.000000,,2013-06-15 03:24:00,
2013-06-14 20:32:00,75.0,32.0,-100.00,West,271,12.0,23.0,21,0.00,,,0.00,124.000000,,2013-06-15 03:32:00,
2013-06-14 20:44:00,75.0,32.0,-100.00,West,271,12.0,23.0,21,0.00,,,0.00,124.000000,,2013-06-15 03:44:00,
2013-06-14 20:52:00,75.0,32.0,-100.00,West,271,12.0,23.0,21,0.00,,,0.00,124.000000,,2013-06-15 03:52:00,
2013-06-14 21:00:00,73.0,32.0,-100.00,West,266,15.0,23.0,22,0.00,,,0.00,36.000000,,2013-06-15 04:00:00,
2013-06-14 21:22:00,73.0,32.0,-100.00,West,266,15.0,23.0,22,0.00,,,0.00,36.000000,,2013-06-15 04:22:00,
2013-06-14 21:34:00,73.0,32.0,-100.00,West,266,15.0,23.0,22,0.00,,,0.00,36.000000,,2013-06-15 04:34:00,
2013-06-14 21:43:00,73.0,32.0,-100.00,West,266,15.0,23.0,22,0.00,,,0.00,36.000000,,2013-06-15 04:43:00,
2013-06-14 21:54:00,73.0,32.0,-100.00,West,266,15.0,23.0,22,0.00,,,0.00,36.000000,,2013-06-15 04:54:00,
2013-06-14 22:00:00,70.0,30.0,-100.00,West,281,5.0,25.0,23,0.00,,,0.00,1.000000,,2013-06-15 05:00:00,
2013-06-14 22:22:00,70.0,30.0,-100.00,West,281,5.0,25.0,23,0.00,,,0.00,1.000000,,2013-06-15 05:22:00,
2013-06-14 22:34:00,70.0,30.0,-100.00,West,281,5.0,25.0,23,0.00,,,0.00,1.000000,,2013-06-15 05:34:00,
2013-06-14 22:43:00,70.0,30.0,-100.00,West,281,5.0,25.0,23,0.00,,,0.00,1.000000,,2013-06-15 05:43:00,
2013-06-14 22:52:00,70.0,30.0,-100.00,West,281,5.0,25.0,23,0.00,,,0.00,1.000000,,2013-06-15 05:52:00,
2013-06-14 23:00:00,67.0,32.0,-100.00,West,279,7.0,11.0,27,0.00,,,0.00,0.000000,,2013-06-15 06:00:00,
2013-06-14 23:24:00,67.0,32.0,-100.00,West,279,7.0,11.0,27,0.00,,,0.00,0.000000,,2013-06-15 06:24:00,
2013-06-14 23:33:00,67.0,32.0,-100.00,West,279,7.0,11.0,27,0.00,,,0.00,0.000000,,2013-06-15 06:33:00,
2013-06-14 23:43:00,67.0,32.0,-100.00,West,279,7.0,11.0,27,0.00,,,0.00,0.000000,,2013-06-15 06:43:00,
2013-06-14 23:53:00,67.0,32.0,-100.00,West,279,7.0,11.0,27,0.00,,,0.00,0.000000,,2013-06-15 06:53:00,